Torna al catalogo

CZ-6A DEB

AttivoPO
NORAD 55215·DEBRIS·🇨🇳 China

Lanciato Nov 11, 2022 da Taiyuan Satellite Launch Center

Loading…

Prossimi Passaggi (prossime 24 ore)

TLE

AggiornatoSource: Space-Track

Epoca: Sep 14, 2026, 15:26 UTC

1 55215U 22151WG  26257.64324548  .00014107  00000-0  17895-2 0  9992
2 55215  98.6319 327.5497 0047617  19.1555 341.1433 14.81031058197944

Traccia CZ-6A DEB in tempo reale con AllMySat

Download on the App Store